Regional Weather Roundup
Issued by NWS

Home | Current Version | Previous Version | Graphics & Text | Print | Product List | Glossary On
Versions: 1 2 3 4 5 6 7 8 9 10 11 12 13 14 15 16 17 18 19 20 21 22 23 24 25 26 27 28 29 30 31 32 33 34 35 36 37 38 39 40 41 42 43 44 45 46 47 48 49 50
178
ASUS43 KDTX 171210
RWRMI
MICHIGAN HOURLY REGIONAL WEATHER ROUNDUP
NATIONAL WEATHER SERVICE DETROIT/PONTIAC MI
700 AM EST FRI NOV 17 2017

NOTE: "FAIR" INDICATES FEW OR NO CLOUDS BELOW 12,000 FEET WITH NO
SIGNIFICANT WEATHER AND/OR OBSTRUCTION TO VISIBILITY.

MIZ047>049-052>055-059>063-066>070-074>076-081>083-171300-
SOUTHEAST LOWER MICHIGAN

CITY           SKY/WX    TMP DP  RH WIND       PRES   REMARKS
ADRIAN         CLOUDY    34  28  79 S3        30.27S
6HR MIN TEMP:  32; 6HR MAX TEMP:  34;

ALMA           MOCLDY    31  28  90 E7        30.23F WCI  24
ANN ARBOR      CLOUDY    34  27  75 CALM      30.26R
BAD AXE        CLOUDY    30  24  75 CALM      30.28R
6HR MIN TEMP:  30; 6HR MAX TEMP:  32;

CARO           CLOUDY    26  24  93 CALM      30.27S
DETROIT CITY   CLOUDY    33  26  75 NE6       30.29R WCI  28
6HR MIN TEMP:  33; 6HR MAX TEMP:  36;

DETROIT        CLOUDY    36  27  69 CALM      30.29R
6HR MIN TEMP:  32; 6HR MAX TEMP:  36;

FLINT          CLOUDY    32  26  78 SE5       30.27R WCI  27
6HR MIN TEMP:  30; 6HR MAX TEMP:  32;

GROSSE ILE     CLOUDY    35  29  79 CALM      30.27R
6HR MIN TEMP:  32; 6HR MAX TEMP:  35;

HILLSDALE      CLOUDY    32  28  86 SE5       30.21S WCI  27
HOWELL         CLOUDY    33  28  83 E5        30.25R WCI  28
6HR MIN TEMP:  29; 6HR MAX TEMP:  33;


CITY           SKY/WX    TMP DP  RH WIND       PRES   REMARKS
JACKSON        CLOUDY    34  28  79 E5        30.23F WCI  30
6HR MIN TEMP:  29; 6HR MAX TEMP:  34;

LAMBERTVILLE   CLOUDY    37  30  74 CALM      30.27R
6HR MIN TEMP:  35; 6HR MAX TEMP:  38;

LANSING        CLOUDY    32  28  85 E8        30.22F WCI  25
6HR MIN TEMP:  28; 6HR MAX TEMP:  32;

LAPEER         CLOUDY    31  25  77 CALM      30.28R
6HR MIN TEMP:  31; 6HR MAX TEMP:  32;

MASON          CLOUDY    33  29  88 SE5       30.24F WCI  28
MONROE         CLOUDY    35  30  79 CALM      30.28R
6HR MIN TEMP:  28; 6HR MAX TEMP:  36;

MT. CLEMENS    CLOUDY    33  27  78 CALM      30.28R
6HR MIN TEMP:  32; 6HR MAX TEMP:  34;

PONTIAC        CLOUDY    33  26  75 CALM      30.26R
6HR MIN TEMP:  32; 6HR MAX TEMP:  33;

PORT HOPE        N/A     32  24  72 VRB3      30.25F
6HR MIN TEMP:  31; 6HR MAX TEMP:  34;

PORT HURON     CLOUDY    30  23  74 W3        30.29R
TRI CITIES     CLOUDY    29  27  92 SE7       30.26F WCI  22
6HR MIN TEMP:  28; 6HR MAX TEMP:  30;

MIDLAND        MOCLDY    25  24  93 E3        30.24F
6HR MIN TEMP:  25; 6HR MAX TEMP:  29;

TROY           CLOUDY    36  27  69 NE3       30.30R
SAGINAW HB     CLOUDY    30  27  86 SE5       30.26F WCI  25
$$
MIZ043>046-050>051-056>058-064>065-071>073-077>080-171300-
SOUTHWEST LOWER MICHIGAN

CITY           SKY/WX    TMP DP  RH WIND       PRES   REMARKS
BATTLE CREEK   CLOUDY    34  29  82 S6        30.20F WCI  29
6HR MIN TEMP:  30; 6HR MAX TEMP:  34;

BENTON HARBOR  MOCLDY    36  30  79 SE9G18    30.17F WCI  29
6HR MIN TEMP:  36; 6HR MAX TEMP:  37;

BIG RAPIDS     CLOUDY    29  25  84 SE9       30.15F WCI  21
6HR MIN TEMP:  26; 6HR MAX TEMP:  29;

COLDWATER      MOCLDY    32  29  88 SE5       30.21S WCI  28
6HR MIN TEMP:  31; 6HR MAX TEMP:  36;

FREMONT        CLOUDY    31  28  90 SE8       30.17S WCI  24
HOLLAND        CLOUDY    34  31  88 SE6       30.19S WCI  29
6HR MIN TEMP:  31; 6HR MAX TEMP:  34;

GRAND RAPIDS   CLOUDY    32  30  92 SE9       30.19F WCI  24
6HR MIN TEMP:  28; 6HR MAX TEMP:  32;

IONIA          FAIR      32  28  88 E10       30.18F WCI  23
6HR MIN TEMP:  30; 6HR MAX TEMP:  32;

KALAMAZOO      CLOUDY    36  28  73 S8        30.19F WCI  30
6HR MIN TEMP:  36; 6HR MAX TEMP:  37;

LUDINGTON      CLOUDY    31  27  83 SE7       30.14F WCI  25
6HR MIN TEMP:  28; 6HR MAX TEMP:  31;

MARSHALL       PTCLDY    31  29  92 SE6       30.20F WCI  26
6HR MIN TEMP:  28; 6HR MAX TEMP:  32;

MOUNT PLEASANT CLOUDY    28  25  86 E5        30.21F WCI  23
6HR MIN TEMP:  26; 6HR MAX TEMP:  30;

MUSKEGON       CLOUDY    33  28  81 SE12      30.17F WCI  24
6HR MIN TEMP:  28; 6HR MAX TEMP:  33;

SOUTH HAVEN    CLOUDY    37  32  82 SE7       30.17F WCI  31
$$
MIZ016>042-171300-
NORTHERN LOWER MICHIGAN

CITY           SKY/WX    TMP DP  RH WIND       PRES   REMARKS
ALPENA         CLOUDY    29  24  82 S3        30.25S
6HR MIN TEMP:  28; 6HR MAX TEMP:  29;

BEAVER ISLAND  CLOUDY    31  26  80 SE9G18    30.15F WCI  23
6HR MIN TEMP:  23; 6HR MAX TEMP:  31;

BELLAIRE       CLOUDY    28  24  86 CALM      30.19F
6HR MIN TEMP:  26; 6HR MAX TEMP:  28;

CADILLAC       CLOUDY    26  23  87 SE10      30.13F WCI  17
CHARLEVOIX     CLOUDY    28  22  79 E12       30.19F WCI  17
6HR MIN TEMP:  27; 6HR MAX TEMP:  28;

FRANKFORT      CLOUDY    32  25  77 SE9       30.16R WCI  24
GAYLORD        PTCLDY    24  19  81 S9        30.18F WCI  14
6HR MIN TEMP:  21; 6HR MAX TEMP:  24;

GRAYLING       PTCLDY    24  20  85 SE6       30.19F WCI  17
6HR MIN TEMP:  21; 6HR MAX TEMP:  24;

HARBOR SPRINGS PTCLDY    26  23  88 E5        30.20F WCI  20
HOUGHTON LAKE  CLOUDY    23  19  85 SE5       30.20F WCI  17
6HR MIN TEMP:  22; 6HR MAX TEMP:  24;

MANISTEE       CLOUDY    30  25  81 E5        30.16R WCI  25
OSCODA         CLOUDY    28  22  79 CALM      30.26S
6HR MIN TEMP:  26; 6HR MAX TEMP:  30;

PELLSTON       CLOUDY    27  22  81 SE9       30.21F WCI  18
6HR MIN TEMP:  24; 6HR MAX TEMP:  27;

ROGERS CITY    CLOUDY    28  23  80 SE5       30.25F WCI  23
TRAVERSE CITY  CLOUDY    29  22  75 SE7       30.15F WCI  22
6HR MIN TEMP:  28; 6HR MAX TEMP:  30;

$$
MIZ007>008-015-171300-
EASTERN UPPER MICHIGAN

CITY           SKY/WX    TMP DP  RH WIND       PRES   REMARKS
KINROSS        CLOUDY    23  19  85 E12       30.19F WCI  12
6HR MIN TEMP:  19; 6HR MAX TEMP:  23;

MACKINAC ISLAN CLOUDY    30  22  71 S9G18     30.20F WCI  21
6HR MIN TEMP:  27; 6HR MAX TEMP:  30;

NEWBERRY       CLOUDY    24  23  96 E13       30.14F WCI  12
6HR MIN TEMP:  21; 6HR MAX TEMP:  24;

S. S. MARIE    CLOUDY    23  17  78 E6        30.21F WCI  16
6HR MIN TEMP:  21; 6HR MAX TEMP:  23;

MUNISING         N/A     29  27  92 S10       30.06F WCI  20
6HR MIN TEMP:  24; 6HR MAX TEMP:  29;

$$
MIZ004>006-011>014-085-171300-
CENTRAL UPPER MICHIGAN

CITY           SKY/WX    TMP DP  RH WIND       PRES   REMARKS
MANISTIQUE     CLOUDY    33  27  79 S13G21    30.11F WCI  24
6HR MIN TEMP:  22; 6HR MAX TEMP:  33;

ESCANABA       CLOUDY    36  30  79 S13G20    30.09F WCI  27
6HR MIN TEMP:  28; 6HR MAX TEMP:  36; 6HR PCP: TRACE;

MENOMINEE      CLOUDY    36  31  82 S9        30.09F WCI  29
6HR MIN TEMP:  30; 6HR MAX TEMP:  36;

SAWYER-GWINN   CLOUDY    27  25  93 S12       30.04F WCI  16
$$
MIZ001>003-009>011-084-171300-
WESTERN UPPER MICHIGAN

CITY           SKY/WX    TMP DP  RH WIND       PRES   REMARKS
IRON MOUNTAIN  CLOUDY    30  24  78 SE8       30.03F WCI  22
6HR MIN TEMP:  26; 6HR MAX TEMP:  30; 6HR PCP: TRACE;

HOUGHTON       CLOUDY    31  24  75 S17G24    29.92F WCI  19
6HR MIN TEMP:  25; 6HR MAX TEMP:  31;

COPPER HARBOR    N/A     33  26  75 SW10G25   29.96F WCI  25
6HR MIN TEMP:  30; 6HR MAX TEMP:  33;

IRONWOOD       CLOUDY    31  27  85 SE13G21   29.80F WCI  21
6HR MIN TEMP:  29; 6HR MAX TEMP:  31; 6HR PCP: TRACE;

$$

ABBREVIATIONS USED IN REMARKS
   TC - TEMPERATURE IN CELSIUS
  WCI - WIND CHILL INDEX
   HX - HEAT INDEX
  VSB - VISIBILITY





USA.gov is the U.S. government's official web portal to all federal, state and local government web resources and services.